Weather in Molochnoe

Russia / Vologda Oblast     59°17′15″N   39°40′56″E
temp.,
°C
wind,
m/s
gust,
m/s
humid.,
%
clouds,
%
prec.,
mm/h
press.,
hPa
HPBL,
m
10 august, wed
wed1000:00+14n368047 0.0 1023113
03:00+14n2477100 0.0 1023103
06:00+14nnw258591 0.0 1024159
09:00+14nnw358399 0.1 1024222
12:00+20nnw45502 0.0 10241613
15:00+20nnw555188 0.0 10231738
18:00+18nw256713 0.0 1023228
21:00+13nw22819 0.0 102412
11 august, thu
thu1100:00+15nw116890 0.0 102415
03:00+11wnw22780 0.0 102517
06:00+12wnw23795 0.0 102669
09:00+18w23565 0.0 1025399
12:00+22w34425 0.0 10251799
15:00+22w45425 0.0 10241835
18:00+21wsw355652 0.0 1023232
21:00+15sw4769100 0.0 1023109
12 august, fri
fri1200:00+14sw496997 0.0 1023142
03:00+13wsw4975100 0.0 1022149
06:00+14wsw4117774 0.0 1022254
09:00+20wsw6105817 0.0 1022658
12:00+23w710495 0.0 10211395
15:00+24w695013 0.0 10201849
18:00+23w47605 0.0 1020484
21:00+18wnw22821 0.0 102117
13 august, sat
sat1300:00+15wnw36885 0.0 1022106
03:00+14nw348813 0.0 102368
06:00+14n2282100 0.0 102451
09:00+19nw1260100 0.0 1025320
12:00+22nw1252100 0.0 1025895
15:00+24wnw125198 0.0 10241218
18:00+23ne116360 0.0 102386
21:00+18se337634 0.0 102328
14 august, sun
sun1400:00+18s3576100 0.0 1023100
03:00+18ssw3874100 0.0 1022192
06:00+18ssw387498 0.0 1022188
09:00+22sw346360 0.0 1022400
12:00+26wsw245016 0.0 10211728
15:00+27w344340 0.0 10202049
18:00+25wnw226075 0.0 102051
21:00+20sw117332 0.0 102011